N6OIM Weather Reports


Display with metric or nautical units.
time (UTC)temp
F
wind
direction
speed
MPH
gust
MPH
rain 1hr
in
rain 24hr
in
rain mn
in
humidity
%
barometer
mb
20260510081842 63 130 0.0 0.0 0.00 0.00 0.00 71 1010.5
20260510081330 64 129 0.0 0.0 0.00 0.00 0.00 71 1010.5
20260510080824 64 129 0.0 0.0 0.00 0.00 0.00 71 1010.5
20260510080333 64 129 0.0 0.0 0.00 0.00 0.00 70 1010.5
20260510075824 64 128 0.0 0.0 0.00 0.00 0.00 70 1010.5
20260510075332 64 128 0.0 0.0 0.00 0.00 0.00 70 1010.6
20260510074821 64 128 0.0 0.0 0.00 0.00 0.00 70 1010.6
20260510074333 64 128 0.0 0.0 0.00 0.00 0.00 70 1010.5
20260510073823 64 128 0.0 0.0 0.00 0.00 0.00 70 1010.5
20260510073329 64 128 0.0 0.0 0.00 0.00 0.00 70 1010.7
20260510072817 64 128 0.0 0.0 0.00 0.00 0.00 69 1010.7
20260510072345 65 125 0.0 0.0 0.00 0.00 0.00 69 1010.8
20260510071819 65 126 0.0 0.0 0.00 0.00 0.00 69 1010.8
20260510071328 65 126 0.0 0.0 0.00 0.00 0.00 69 1010.8
20260510070818 65 125 0.0 0.0 0.00 0.00 0.00 69 1010.7
20260510070327 65 126 0.0 0.0 0.00 0.00 0.00 69 1010.6
20260510065835 66 127 0.0 0.0 0.00 0.00 0.00 69 1010.7
20260510065324 66 126 0.0 0.0 0.00 0.00 0.00 69 1010.6
20260510064833 66 128 0.0 0.0 0.00 0.00 0.00 68 1010.6
20260510064322 66 129 0.0 0.0 0.00 0.00 0.00 68 1010.6
20260510063831 67 129 0.0 0.0 0.00 0.00 0.00 67 1010.6
20260510063323 67 129 0.0 0.0 0.00 0.00 0.00 67 1010.6
20260510062831 67 129 0.0 0.0 0.00 0.00 0.00 67 1010.6
20260510062342 68 128 0.0 0.0 0.00 0.00 0.00 66 1010.7
20260510061829 68 128 0.0 0.0 0.00 0.00 0.00 66 1010.7
20260510061321 68 129 0.0 0.0 0.00 0.00 0.00 65 1010.7
20260510060829 68 187 0.0 0.0 0.00 0.00 0.00 65 1010.7
20260510060317 69 188 0.0 0.0 0.00 0.00 0.00 65 1010.7
20260510055825 69 188 0.0 0.0 0.00 0.00 0.00 65 1010.7
20260510055316 69 190 0.0 0.0 0.00 0.00 0.00 65 1010.7
20260510054825 70 190 0.0 0.0 0.00 0.00 0.00 64 1010.6
20260510054352 70 190 0.0 0.0 0.00 0.00 0.00 64 1010.5
20260510053823 70 195 0.0 0.0 0.00 0.00 0.00 63 1010.5
20260510053335 70 196 0.0 0.0 0.00 0.00 0.00 63 1010.4
20260510052824 71 196 0.0 0.0 0.00 0.00 0.00 63 1010.5
20260510052333 71 195 0.0 0.0 0.00 0.00 0.00 62 1010.5
20260510051822 71 163 0.0 0.0 0.00 0.00 0.00 63 1010.4
20260510051331 72 163 0.0 0.0 0.00 0.00 0.00 62 1010.5
20260510050819 72 164 0.0 0.0 0.00 0.00 0.00 61 1010.4
20260510050326 72 164 0.0 0.0 0.00 0.00 0.00 60 1010.4
20260510045834 72 164 0.0 0.0 0.00 0.00 0.00 60 1010.3
20260510045327 72 164 0.0 0.0 0.00 0.00 0.00 59 1010.2
20260510044836 73 164 0.0 0.0 0.00 0.00 0.00 58 1010.2
20260510044324 73 164 0.0 0.0 0.00 0.00 0.00 57 1010.2
20260510043832 73 164 0.0 0.0 0.00 0.00 0.00 57 1010.1
20260510043319 74 165 0.0 0.0 0.00 0.00 0.00 56 1010.0
20260510042828 74 167 0.0 0.0 0.00 0.00 0.00 57 1010.0
20260510042336 74 167 0.0 0.0 0.00 0.00 0.00 57 1010.0
20260510041825 75 167 0.0 0.0 0.00 0.00 0.00 57 1010.0
20260510041334 75 167 0.0 0.0 0.00 0.00 0.00 56 1010.0
20260510040845 76 167 0.0 0.0 0.00 0.00 0.00 56 1010.0
20260510040352 76 167 0.0 0.0 0.00 0.00 0.00 55 1009.8
20260510035824 76 167 0.0 0.0 0.00 0.00 0.00 55 1009.6
20260510035332 77 171 0.0 0.0 0.00 0.00 0.00 55 1009.5
20260510034822 77 173 0.0 0.0 0.00 0.00 0.00 54 1009.6
20260510034351 78 165 0.0 0.0 0.00 0.00 0.00 54 1009.6
20260510033822 78 164 0.0 0.0 0.00 0.00 0.00 54 1009.5
20260510033349 78 170 0.0 0.0 0.00 0.00 0.00 54 1009.4
20260510032820 79 170 0.0 0.0 0.00 0.00 0.00 53 1009.3
20260510032348 79 169 0.0 0.0 0.00 0.00 0.00 53 1009.3
20260510031836 80 170 0.0 0.0 0.00 0.00 0.00 52 1009.1
20260510031325 80 168 0.0 0.0 0.00 0.00 0.00 52 1009.0
20260510030833 81 169 0.0 0.0 0.00 0.00 0.00 52 1009.0
20260510030324 81 169 0.0 0.0 0.00 0.00 0.00 51 1009.0
20260510025832 81 168 0.0 0.0 0.00 0.00 0.00 51 1008.9
20260510025319 82 190 0.0 0.0 0.00 0.00 0.00 51 1008.8
20260510024828 82 190 0.0 0.0 0.00 0.00 0.00 50 1008.9
20260510024335 83 190 0.0 0.0 0.00 0.00 0.00 50 1008.9
20260510023824 83 190 0.0 0.0 0.00 0.00 0.00 50 1008.9
20260510023332 84 190 0.0 0.0 0.00 0.00 0.00 50 1008.9
20260510022820 84 190 0.0 0.0 0.00 0.00 0.00 49 1008.8
20260510022328 84 190 0.0 0.0 0.00 0.00 0.00 48 1008.7
20260510021825 85 194 0.0 0.0 0.00 0.00 0.00 48 1008.8
20260510021335 85 175 0.0 0.0 0.00 0.00 0.00 47 1008.7
20260510020823 86 159 0.0 0.0 0.00 0.00 0.00 46 1008.6
20260510020351 86 157 0.0 0.0 0.00 0.00 0.00 46 1008.7
20260510015818 87 248 0.0 0.0 0.00 0.00 0.00 45 1008.8
20260510015326 87 175 0.0 0.0 0.00 0.00 0.00 44 1008.8
20260510014836 88 208 0.0 0.0 0.00 0.00 0.00 43 1008.8
20260510014324 89 210 0.0 0.0 0.00 0.00 0.00 42 1008.8
20260510013833 90 208 0.0 0.0 0.00 0.00 0.00 41 1008.8
20260510013322 91 206 0.0 0.0 0.00 0.00 0.00 40 1008.8
20260510012829 92 222 0.0 0.0 0.00 0.00 0.00 38 1008.8
20260510012321 92 173 0.0 0.0 0.00 0.00 0.00 37 1008.8
20260510011830 93 190 0.0 0.0 0.00 0.00 0.00 35 1008.8
20260510011318 93 219 0.0 0.0 0.00 0.00 0.00 31 1008.8
20260510010827 93 219 0.0 0.0 0.00 0.00 0.00 31 1008.8
20260510010336 93 219 0.0 0.0 0.00 0.00 0.00 29 1008.8
20260510005824 93 219 0.0 0.0 0.00 0.00 0.00 29 1008.8
20260510005355 92 224 0.0 0.0 0.00 0.00 0.00 31 1008.8
20260510004823 92 223 0.0 0.0 0.00 0.00 0.00 32 1008.8
20260510004332 92 225 0.0 0.0 0.00 0.00 0.00 30 1008.8
20260510003825 93 225 0.0 0.0 0.00 0.00 0.00 30 1008.9
20260510003331 93 225 0.0 0.0 0.00 0.00 0.00 29 1008.9
20260510002820 93 225 0.0 0.0 0.00 0.00 0.00 30 1008.9
20260510002327 93 223 0.0 0.0 0.00 0.00 0.00 33 1008.8
20260510001836 92 194 0.0 0.0 0.00 0.00 0.00 32 1008.9
20260510001323 92 194 0.0 0.0 0.00 0.00 0.00 33 1008.9
20260510000831 92 194 0.0 0.0 0.00 0.00 0.00 33 1008.9
20260510000319 92 210 0.0 0.0 0.00 0.00 0.00 34 1009.0
20260509235828 92 210 0.0 0.0 0.00 0.00 0.00 33 1009.0
20260509235320 92 218 0.0 0.0 0.00 0.00 0.00 33 1009.2
20260509234829 92 219 0.0 0.0 0.00 0.00 0.00 32 1009.2
20260509234321 91 286 0.0 0.0 0.00 0.00 0.00 33 1009.2
20260509233830 91 279 0.0 0.0 0.00 0.00 0.00 34 1009.2
20260509233318 91 267 0.0 0.0 0.00 0.00 0.00 35 1009.2
20260509232825 91 267 0.0 0.0 0.00 0.00 0.00 34 1009.1
20260509232353 91 267 0.0 0.0 0.00 0.00 0.00 36 1009.2
20260509231820 91 271 0.0 0.0 0.00 0.00 0.00 35 1009.3
20260509231330 90 269 0.0 0.0 0.00 0.00 0.00 35 1009.2
20260509230839 90 304 0.0 0.0 0.00 0.00 0.00 37 1009.4
20260509230326 90 355 0.0 0.0 0.00 0.00 0.00 36 1009.4
20260509225820 90 233 0.0 0.0 0.00 0.00 0.00 37 1009.5
20260509225327 90 219 0.0 0.0 0.00 0.00 0.00 37 1009.7
20260509224816 90 219 0.0 0.0 0.00 0.00 0.00 35 1009.7
20260509224327 90 211 0.0 0.0 0.00 0.00 0.00 35 1009.6
20260509223837 89 173 0.0 0.0 0.00 0.00 0.00 38 1009.8
20260509223326 89 173 0.0 0.0 0.00 0.00 0.00 38 1009.9
20260509222814 88 172 0.0 0.0 0.00 0.00 0.00 36 1010.0
20260509222346 88 232 0.0 0.0 0.00 0.00 0.00 39 1010.1
20260509221834 88 254 0.0 0.0 0.00 0.00 0.00 39 1010.1
20260509221325 88 226 0.0 0.0 0.00 0.00 0.00 40 1010.2
20260509220832 88 218 0.0 0.0 0.00 0.00 0.00 40 1010.2
20260509220320 87 314 0.0 0.0 0.00 0.00 0.00 41 1010.3
20260509215828 87 331 0.0 0.0 0.00 0.00 0.00 41 1010.3
20260509215356 87 330 0.0 0.0 0.00 0.00 0.00 44 1010.4
20260509214823 87 313 0.0 0.0 0.00 0.00 0.00 43 1010.5
20260509214335 87 223 0.0 0.0 0.00 0.00 0.00 43 1010.5
20260509213824 86 315 0.0 0.0 0.00 0.00 0.00 47 1010.5
20260509213336 86 232 0.0 0.0 0.00 0.00 0.00 45 1010.6
20260509212826 86 231 0.0 0.0 0.00 0.00 0.00 46 1010.7
20260509212339 86 249 0.0 0.0 0.00 0.00 0.00 46 1010.7
20260509211827 85 315 0.0 0.0 0.00 0.00 0.00 46 1010.7
20260509211317 85 218 0.0 0.0 0.00 0.00 0.00 48 1010.8
20260509210826 85 219 0.0 0.0 0.00 0.00 0.00 46 1010.9
20260509210335 85 202 0.0 0.0 0.00 0.00 0.00 45 1010.9
20260509205824 84 280 0.0 0.0 0.00 0.00 0.00 46 1010.9
20260509205332 84 281 0.0 0.0 0.00 0.00 0.00 46 1011.0
20260509204821 84 234 0.0 0.0 0.00 0.00 0.00 48 1011.1
20260509204329 84 234 0.0 0.0 0.00 0.00 0.00 47 1011.1
20260509203818 84 234 0.0 0.0 0.00 0.00 0.00 48 1011.2
20260509203331 84 234 0.0 0.0 0.00 0.00 0.00 48 1011.2
20260509202821 83 233 0.0 0.0 0.00 0.00 0.00 50 1011.1
20260509202330 83 232 0.0 0.0 0.00 0.00 0.00 51 1011.3
20260509201819 83 233 0.0 0.0 0.00 0.00 0.00 52 1011.3
20260509201326 83 234 0.0 0.0 0.00 0.00 0.00 53 1011.3
20260509200815 82 232 0.0 0.0 0.00 0.00 0.00 52 1011.4
20260509200327 82 231 0.0 0.0 0.00 0.00 0.00 51 1011.4
20260509195856 82 229 0.0 0.0 0.00 0.00 0.00 51 1011.4
20260509195323 81 234 0.0 0.0 0.00 0.00 0.00 51 1011.5
20260509194832 81 234 0.0 0.0 0.00 0.00 0.00 53 1011.6
20260509194323 81 234 0.0 0.0 0.00 0.00 0.00 54 1011.6
20260509193832 80 234 0.0 0.0 0.00 0.00 0.00 55 1011.7
20260509193320 80 233 0.0 0.0 0.00 0.00 0.00 54 1011.8
20260509192829 80 197 0.0 0.0 0.00 0.00 0.00 55 1012.0
20260509192316 80 197 0.0 0.0 0.00 0.00 0.00 53 1012.0
20260509191828 79 192 0.0 0.0 0.00 0.00 0.00 54 1012.0
20260509191317 79 116 0.0 0.0 0.00 0.00 0.00 53 1012.1
20260509190827 79 203 0.0 0.0 0.00 0.00 0.00 56 1012.2
20260509190320 78 210 0.0 0.0 0.00 0.00 0.00 55 1012.2
20260509185828 78 210 0.0 0.0 0.00 0.00 0.00 56 1012.3
20260509185317 77 209 0.0 0.0 0.00 0.00 0.00 57 1012.4
20260509184827 77 209 0.0 0.0 0.00 0.00 0.00 57 1012.4
20260509184335 77 206 0.0 0.0 0.00 0.00 0.00 57 1012.4
20260509183826 77 196 0.0 0.0 0.00 0.00 0.00 57 1012.4
20260509183333 76 196 0.0 0.0 0.00 0.00 0.00 57 1012.5
20260509182822 76 215 0.0 0.0 0.00 0.00 0.00 58 1012.6
20260509182330 76 218 0.0 0.0 0.00 0.00 0.00 59 1012.7
20260509181819 75 218 0.0 0.0 0.00 0.00 0.00 59 1012.8
20260509181326 75 190 0.0 0.0 0.00 0.00 0.00 59 1012.9
20260509180819 75 182 0.0 0.0 0.00 0.00 0.00 59 1012.8
20260509180327 74 181 0.0 0.0 0.00 0.00 0.00 59 1012.8
20260509175836 74 184 0.0 0.0 0.00 0.00 0.00 60 1012.7
20260509175344 74 168 0.0 0.0 0.00 0.00 0.00 60 1012.7
20260509174832 74 169 0.0 0.0 0.00 0.00 0.00 60 1012.7
20260509174320 73 183 0.0 0.0 0.00 0.00 0.00 62 1012.7
20260509173832 73 183 0.0 0.0 0.00 0.00 0.00 61 1012.7
20260509173319 72 183 0.0 0.0 0.00 0.00 0.00 63 1012.7
20260509172828 72 183 0.0 0.0 0.00 0.00 0.00 64 1012.8
20260509172323 71 184 0.0 0.0 0.00 0.00 0.00 66 1012.8
20260509171836 71 183 0.0 0.0 0.00 0.00 0.00 67 1012.8
20260509170833 70 184 0.0 0.0 0.00 0.00 0.00 66 1012.8
20260509170321 70 184 0.0 0.0 0.00 0.00 0.00 67 1012.7
20260509165830 70 184 0.0 0.0 0.00 0.00 0.00 66 1012.7
20260509165319 69 171 0.0 0.0 0.00 0.00 0.00 67 1012.7
20260509164828 69 171 0.0 0.0 0.00 0.00 0.00 66 1012.8
20260509164317 69 171 0.0 0.0 0.00 0.00 0.00 67 1012.8
20260509163830 69 168 0.0 0.0 0.00 0.00 0.00 67 1012.9
20260509163319 69 163 0.0 0.0 0.00 0.00 0.00 67 1012.9
20260509162828 69 144 0.0 0.0 0.00 0.00 0.00 67 1012.9
20260509162318 68 144 0.0 0.0 0.00 0.00 0.00 67 1012.9
20260509161826 68 142 0.0 0.0 0.00 0.00 0.00 67 1012.9
20260509161334 68 140 0.0 0.0 0.00 0.00 0.00 67 1013.0
20260509160825 68 140 0.0 0.0 0.00 0.00 0.00 68 1013.0
20260509160334 67 140 0.0 0.0 0.00 0.00 0.00 68 1012.9
20260509155822 67 141 0.0 0.0 0.00 0.00 0.00 70 1013.0
20260509155350 66 141 0.0 0.0 0.00 0.00 0.00 70 1013.0
20260509154822 66 141 0.0 0.0 0.00 0.00 0.00 71 1012.9
20260509154330 65 141 0.0 0.0 0.00 0.00 0.00 71 1012.9
20260509153818 65 139 0.0 0.0 0.00 0.00 0.00 72 1012.9
20260509153326 65 142 0.0 0.0 0.00 0.00 0.00 72 1012.9
20260509152837 64 144 0.0 0.0 0.00 0.00 0.00 72 1012.9
20260509152325 64 149 0.0 0.0 0.00 0.00 0.00 73 1012.9
20260509151854 63 150 0.0 0.0 0.00 0.00 0.00 75 1012.9
20260509151320 63 150 0.0 0.0 0.00 0.00 0.00 75 1012.9
20260509150828 62 150 0.0 0.0 0.00 0.00 0.00 77 1012.9
20260509150334 62 148 0.0 0.0 0.00 0.00 0.00 77 1012.9
20260509145825 61 148 0.0 0.0 0.00 0.00 0.00 78 1012.9
20260509145337 61 148 0.0 0.0 0.00 0.00 0.00 78 1012.9
20260509144828 61 107 0.0 0.0 0.00 0.00 0.00 79 1012.9
20260509144336 60 103 0.0 0.0 0.00 0.00 0.00 80 1012.8
20260509143826 60 103 0.0 0.0 0.00 0.00 0.00 81 1012.9
20260509143335 59 101 0.0 0.0 0.00 0.00 0.00 82 1012.9
20260509142824 59 96 0.0 0.0 0.00 0.00 0.00 82 1012.8
20260509142334 58 94 0.0 0.0 0.00 0.00 0.00 83 1012.8
20260509141824 58 84 0.0 0.0 0.00 0.00 0.00 83 1012.8
20260509141333 58 331 0.0 0.0 0.00 0.00 0.00 84 1012.8
20260509140829 57 305 0.0 0.0 0.00 0.00 0.00 85 1012.7
20260509140317 57 306 0.0 0.0 0.00 0.00 0.00 85 1012.7
20260509135828 57 306 0.0 0.0 0.00 0.00 0.00 85 1012.7
20260509135316 57 306 0.0 0.0 0.00 0.00 0.00 85 1012.6
20260509134828 56 306 0.0 0.0 0.00 0.00 0.00 85 1012.6
20260509134335 56 306 0.0 0.0 0.00 0.00 0.00 84 1012.7
20260509133825 56 306 0.0 0.0 0.00 0.00 0.00 84 1012.7
20260509133333 56 306 0.0 0.0 0.00 0.00 0.00 84 1012.7
20260509132823 56 306 0.0 0.0 0.00 0.00 0.00 84 1012.7
20260509132334 56 306 0.0 0.0 0.00 0.00 0.00 84 1012.7
20260509131822 56 306 0.0 0.0 0.00 0.00 0.00 84 1012.6
20260509131331 57 306 0.0 0.0 0.00 0.00 0.00 83 1012.6
20260509130823 57 306 0.0 0.0 0.00 0.00 0.00 83 1012.6
20260509130331 57 306 0.0 0.0 0.00 0.00 0.00 83 1012.7
20260509125822 57 306 0.0 0.0 0.00 0.00 0.00 83 1012.7
20260509125330 57 306 0.0 0.0 0.00 0.00 0.00 83 1012.6
20260509124818 57 306 0.0 0.0 0.00 0.00 0.00 83 1012.5
20260509124327 57 306 0.0 0.0 0.00 0.00 0.00 83 1012.4
20260509123821 57 306 0.0 0.0 0.00 0.00 0.00 83 1012.5
20260509123328 57 306 0.0 0.0 0.00 0.00 0.00 82 1012.4
20260509122817 57 306 0.0 0.0 0.00 0.00 0.00 82 1012.3
20260509122325 57 306 0.0 0.0 0.00 0.00 0.00 82 1012.4
20260509121834 57 306 0.0 0.0 0.00 0.00 0.00 82 1012.3
20260509121323 57 306 0.0 0.0 0.00 0.00 0.00 82 1012.3
20260509120832 57 306 0.0 0.0 0.00 0.00 0.00 82 1012.3
20260509120320 57 306 0.0 0.0 0.00 0.00 0.00 82 1012.3
20260509115832 58 306 0.0 0.0 0.00 0.00 0.00 82 1012.3
20260509115324 58 306 0.0 0.0 0.00 0.00 0.00 82 1012.3
20260509114832 58 306 0.0 0.0 0.00 0.00 0.00 82 1012.3
20260509114319 58 306 0.0 0.0 0.00 0.00 0.00 82 1012.3
20260509113830 58 306 0.0 0.0 0.00 0.00 0.00 82 1012.2
20260509113319 58 306 0.0 0.0 0.00 0.00 0.00 82 1012.2
20260509112828 58 306 0.0 0.0 0.00 0.00 0.00 82 1012.3
20260509112335 58 306 0.0 0.0 0.00 0.00 0.00 82 1012.3
20260509111824 58 306 0.0 0.0 0.00 0.00 0.00 82 1012.3
20260509111332 58 306 0.0 0.0 0.00 0.00 0.00 82 1012.3
20260509110845 59 306 0.0 0.0 0.00 0.00 0.00 82 1012.3
20260509110333 59 306 0.0 0.0 0.00 0.00 0.00 82 1012.3
20260509105823 59 306 0.0 0.0 0.00 0.00 0.00 82 1012.4
20260509105332 59 306 0.0 0.0 0.00 0.00 0.00 82 1012.4
20260509104821 59 306 0.0 0.0 0.00 0.00 0.00 82 1012.3
20260509104328 59 306 0.0 0.0 0.00 0.00 0.00 82 1012.3
20260509103817 59 306 0.0 0.0 0.00 0.00 0.00 82 1012.3
20260509103325 59 306 0.0 0.0 0.00 0.00 0.00 82 1012.3
20260509102833 59 306 0.0 0.0 0.00 0.00 0.00 82 1012.3
20260509102325 60 306 0.0 0.0 0.00 0.00 0.00 81 1012.4
20260509101835 60 306 0.0 0.0 0.00 0.00 0.00 81 1012.4
20260509101323 60 306 0.0 0.0 0.00 0.00 0.00 81 1012.4
20260509100831 60 306 0.0 0.0 0.00 0.00 0.00 81 1012.4
20260509100319 60 306 0.0 0.0 0.00 0.00 0.00 81 1012.4
20260509095829 60 306 0.0 0.0 0.00 0.00 0.00 81 1012.3
20260509095357 60 306 0.0 0.0 0.00 0.00 0.00 80 1012.3
20260509094824 60 306 0.0 0.0 0.00 0.00 0.00 80 1012.4
20260509094333 60 306 0.0 0.0 0.00 0.00 0.00 80 1012.5
20260509093822 60 306 0.0 0.0 0.00 0.00 0.00 80 1012.4
20260509093335 60 306 0.0 0.0 0.00 0.00 0.00 80 1012.4
20260509092825 61 306 0.0 0.0 0.00 0.00 0.00 80 1012.4
20260509092335 61 306 0.0 0.0 0.00 0.00 0.00 80 1012.5
20260509091824 61 306 0.0 0.0 0.00 0.00 0.00 79 1012.4
20260509091335 61 306 0.0 0.0 0.00 0.00 0.00 79 1012.6
20260509090824 61 306 0.0 0.0 0.00 0.00 0.00 79 1012.6
20260509090332 61 306 0.0 0.0 0.00 0.00 0.00 79 1012.6
20260509085818 61 306 0.0 0.0 0.00 0.00 0.00 79 1012.6
20260509085328 61 306 0.0 0.0 0.00 0.00 0.00 79 1012.6
20260509084856 61 306 0.0 0.0 0.00 0.00 0.00 79 1012.7
20260509084323 61 306 0.0 0.0 0.00 0.00 0.00 79 1012.7
20260509083820 62 306 0.0 0.0 0.00 0.00 0.00 79 1012.7
20260509083328 62 306 0.0 0.0 0.00 0.00 0.00 79 1012.7
20260509082820 62 306 0.0 0.0 0.00 0.00 0.00 79 1012.7
20260509082352 62 306 0.0 0.0 0.00 0.00 0.00 79 1012.8